GLO1014 SBSP-SBRJ

Flight info

Callsign GLO1014
Flight time 0h 41m
Altitude 27000
Route NIBRU UZ171 KEVUN
Aircraft B738/M-SDE2E3FGHIRWXY/LB1

Departure

Time 2026-05-01 14:15
Airport Congonhas–Deputado Freitas Nobre Airport (SBSP)

Arrival

Time 2026-05-01 14:56
Airport Santos Dumont Airport (SBRJ)
Time Latitude Longitude Altitude Speed Heading
2026-05-01 14:04 -23.62420 -46.66025 2599 ft 0 kts 237°
2026-05-01 14:10 -23.62417 -46.66021 2599 ft 2 kts 237°
2026-05-01 14:10 -23.62406 -46.66002 2599 ft 3 kts 238°
2026-05-01 14:10 -23.62401 -46.65988 2599 ft 2 kts 311°
2026-05-01 14:10 -23.62409 -46.65981 2600 ft 2 kts 327°
2026-05-01 14:11 -23.62411 -46.65979 2599 ft 0 kts 328°
2026-05-01 14:12 -23.62411 -46.65980 2599 ft 1 kts 328°
2026-05-01 14:12 -23.62394 -46.65992 2599 ft 6 kts 327°
2026-05-01 14:12 -23.62335 -46.66029 2599 ft 13 kts 337°
2026-05-01 14:13 -23.62235 -46.66050 2599 ft 15 kts 343°
2026-05-01 14:13 -23.62175 -46.66085 2598 ft 15 kts 329°
2026-05-01 14:13 -23.62056 -46.66135 2590 ft 14 kts 19°
2026-05-01 14:13 -23.62034 -46.66085 2595 ft 3 kts 128°
2026-05-01 14:14 -23.62066 -46.66062 2592 ft 17 kts 147°
2026-05-01 14:14 -23.62394 -46.65835 2601 ft 94 kts 147°
2026-05-01 14:14 -23.63138 -46.65311 2627 ft 156 kts 143°
2026-05-01 14:14 -23.64094 -46.64613 3199 ft 176 kts 141°
2026-05-01 14:15 -23.65041 -46.63836 4130 ft 171 kts 125°
2026-05-01 14:15 -23.65630 -46.62646 4613 ft 195 kts 112°
2026-05-01 14:15 -23.66279 -46.61207 4893 ft 228 kts 113°
2026-05-01 14:15 -23.67040 -46.59578 5196 ft 255 kts 116°
2026-05-01 14:16 -23.67905 -46.57774 5531 ft 278 kts 116°
2026-05-01 14:16 -23.68827 -46.55885 6344 ft 285 kts 116°
2026-05-01 14:16 -23.69778 -46.53951 7187 ft 291 kts 117°
2026-05-01 14:16 -23.70738 -46.52006 8186 ft 291 kts 117°
2026-05-01 14:17 -23.71664 -46.50022 9040 ft 296 kts 109°
2026-05-01 14:17 -23.71918 -46.47817 9938 ft 296 kts 86°
2026-05-01 14:17 -23.71682 -46.45555 10608 ft 306 kts 81°
2026-05-01 14:17 -23.71336 -46.43236 11294 ft 312 kts 80°
2026-05-01 14:18 -23.70967 -46.40888 12065 ft 317 kts 80°
2026-05-01 14:18 -23.70598 -46.38499 12823 ft 321 kts 80°
2026-05-01 14:18 -23.70230 -46.36063 13490 ft 329 kts 80°
2026-05-01 14:18 -23.69988 -46.34420 13966 ft 332 kts 80°
2026-05-01 14:19 -23.69498 -46.31052 14844 ft 339 kts 81°
2026-05-01 14:19 -23.69131 -46.28497 15564 ft 341 kts 81°
2026-05-01 14:19 -23.68763 -46.25931 16267 ft 345 kts 81°
2026-05-01 14:19 -23.68396 -46.23370 16890 ft 350 kts 80°
2026-05-01 14:20 -23.68013 -46.20689 17551 ft 355 kts 80°
2026-05-01 14:20 -23.67241 -46.15306 18814 ft 363 kts 80°
2026-05-01 14:20 -23.66847 -46.12569 19402 ft 367 kts 80°
2026-05-01 14:21 -23.66451 -46.09810 20000 ft 370 kts 80°
2026-05-01 14:21 -23.66050 -46.07022 20569 ft 374 kts 80°
2026-05-01 14:21 -23.65645 -46.04207 21149 ft 378 kts 80°
2026-05-01 14:22 -23.64828 -45.98528 22301 ft 385 kts 80°
2026-05-01 14:22 -23.64411 -45.95635 22860 ft 388 kts 80°
2026-05-01 14:22 -23.63989 -45.92713 23396 ft 392 kts 80°
2026-05-01 14:22 -23.63561 -45.89757 23906 ft 396 kts 80°
2026-05-01 14:23 -23.63130 -45.86779 24356 ft 400 kts 80°
2026-05-01 14:23 -23.62693 -45.83765 24795 ft 403 kts 80°
2026-05-01 14:23 -23.62253 -45.80733 25244 ft 407 kts 80°
2026-05-01 14:23 -23.61808 -45.77678 25690 ft 410 kts 80°
2026-05-01 14:24 -23.61359 -45.74592 26136 ft 413 kts 80°
2026-05-01 14:24 -23.60905 -45.71481 26581 ft 417 kts 80°
2026-05-01 14:24 -23.60448 -45.68349 27005 ft 421 kts 80°
2026-05-01 14:24 -23.59985 -45.65183 27187 ft 427 kts 80°
2026-05-01 14:25 -23.59511 -45.61950 27194 ft 435 kts 80°
2026-05-01 14:25 -23.59031 -45.58671 27197 ft 440 kts 80°
2026-05-01 14:25 -23.58547 -45.55372 27186 ft 439 kts 80°
2026-05-01 14:25 -23.58066 -45.52097 27187 ft 436 kts 80°
2026-05-01 14:26 -23.57586 -45.48842 27193 ft 434 kts 80°
2026-05-01 14:26 -23.56456 -45.42393 27189 ft 432 kts 76°
2026-05-01 14:26 -23.55767 -45.39213 27194 ft 431 kts 75°
2026-05-01 14:27 -23.55061 -45.36038 27190 ft 432 kts 75°
2026-05-01 14:27 -23.54357 -45.32853 27191 ft 432 kts 75°
2026-05-01 14:27 -23.53662 -45.29664 27194 ft 433 kts 76°
2026-05-01 14:28 -23.52296 -45.23291 27198 ft 436 kts 76°
2026-05-01 14:28 -23.51613 -45.20080 27185 ft 433 kts 76°
2026-05-01 14:28 -23.50936 -45.16896 26915 ft 429 kts 76°
2026-05-01 14:28 -23.50267 -45.13751 26583 ft 424 kts 76°
2026-05-01 14:29 -23.49602 -45.10635 26181 ft 421 kts 76°
2026-05-01 14:29 -23.48941 -45.07539 25800 ft 418 kts 76°
2026-05-01 14:30 -23.46978 -44.98362 24553 ft 412 kts 76°
2026-05-01 14:30 -23.46327 -44.95328 24130 ft 410 kts 76°
2026-05-01 14:30 -23.45671 -44.92317 23768 ft 407 kts 75°
2026-05-01 14:31 -23.44351 -44.86376 22903 ft 401 kts 75°
2026-05-01 14:31 -23.43695 -44.83436 22493 ft 398 kts 75°
2026-05-01 14:31 -23.43052 -44.80555 22095 ft 396 kts 75°
2026-05-01 14:31 -23.42405 -44.77652 21675 ft 394 kts 75°
2026-05-01 14:32 -23.41762 -44.74768 21270 ft 391 kts 75°
2026-05-01 14:32 -23.41329 -44.72827 21003 ft 389 kts 75°
2026-05-01 14:32 -23.40489 -44.69057 20480 ft 386 kts 75°
2026-05-01 14:32 -23.39858 -44.66229 20084 ft 383 kts 75°
2026-05-01 14:33 -23.39228 -44.63412 19693 ft 381 kts 75°
2026-05-01 14:33 -23.38604 -44.60619 19282 ft 380 kts 75°
2026-05-01 14:33 -23.37980 -44.57830 18884 ft 379 kts 76°
2026-05-01 14:33 -23.37356 -44.55047 18474 ft 378 kts 76°
2026-05-01 14:34 -23.36735 -44.52274 18032 ft 376 kts 76°
2026-05-01 14:34 -23.36118 -44.49523 17626 ft 373 kts 76°
2026-05-01 14:34 -23.35505 -44.46789 17231 ft 370 kts 76°
2026-05-01 14:34 -23.34896 -44.44082 16839 ft 367 kts 76°
2026-05-01 14:35 -23.34232 -44.41411 16449 ft 364 kts 70°
2026-05-01 14:35 -23.33267 -44.38887 16099 ft 360 kts 64°
2026-05-01 14:35 -23.32181 -44.36447 15726 ft 357 kts 63°
2026-05-01 14:35 -23.31080 -44.34040 15350 ft 354 kts 63°
2026-05-01 14:36 -23.29993 -44.31637 14981 ft 352 kts 63°
2026-05-01 14:36 -23.28931 -44.29245 14594 ft 351 kts 64°
2026-05-01 14:36 -23.27885 -44.26855 14222 ft 349 kts 64°
2026-05-01 14:36 -23.27201 -44.25280 13963 ft 348 kts 64°
2026-05-01 14:37 -23.26175 -44.22906 13555 ft 346 kts 64°
2026-05-01 14:37 -23.25159 -44.20550 13159 ft 343 kts 64°
2026-05-01 14:37 -23.24150 -44.18207 12782 ft 340 kts 64°
2026-05-01 14:37 -23.23156 -44.15899 12413 ft 337 kts 64°
2026-05-01 14:38 -23.22165 -44.13598 12049 ft 334 kts 64°
2026-05-01 14:38 -23.21184 -44.11325 11684 ft 331 kts 64°
2026-05-01 14:38 -23.20214 -44.09079 11367 ft 326 kts 64°
2026-05-01 14:38 -23.19240 -44.06869 11118 ft 320 kts 63°
2026-05-01 14:39 -23.18255 -44.04730 10902 ft 313 kts 62°
2026-05-01 14:39 -23.17288 -44.02643 10737 ft 307 kts 62°
2026-05-01 14:39 -23.16335 -44.00581 10577 ft 303 kts 62°
2026-05-01 14:39 -23.15413 -43.98553 10411 ft 296 kts 63°
2026-05-01 14:40 -23.14552 -43.96555 10256 ft 288 kts 64°
2026-05-01 14:40 -23.13721 -43.94598 10103 ft 281 kts 64°
2026-05-01 14:40 -23.12912 -43.92691 9941 ft 275 kts 64°
2026-05-01 14:40 -23.12116 -43.90820 9793 ft 272 kts 64°
2026-05-01 14:41 -23.11322 -43.88956 9653 ft 272 kts 64°
2026-05-01 14:41 -23.10526 -43.87092 9513 ft 272 kts 64°
2026-05-01 14:41 -23.09729 -43.85229 9358 ft 272 kts 64°
2026-05-01 14:41 -23.08930 -43.83360 9244 ft 274 kts 64°
2026-05-01 14:42 -23.08123 -43.81476 9069 ft 276 kts 64°
2026-05-01 14:42 -23.07313 -43.79585 8929 ft 276 kts 64°
2026-05-01 14:42 -23.06504 -43.77698 8790 ft 276 kts 64°
2026-05-01 14:42 -23.05694 -43.75809 8632 ft 276 kts 64°
2026-05-01 14:43 -23.04881 -43.73913 8522 ft 278 kts 63°
2026-05-01 14:43 -23.04085 -43.71984 8332 ft 283 kts 65°
2026-05-01 14:43 -23.03198 -43.70084 8177 ft 282 kts 63°
2026-05-01 14:43 -23.02383 -43.68148 7876 ft 280 kts 64°
2026-05-01 14:44 -23.01572 -43.66267 7636 ft 271 kts 64°
2026-05-01 14:44 -22.99986 -43.62644 7049 ft 259 kts 64°
2026-05-01 14:44 -22.99216 -43.60892 6872 ft 256 kts 64°
2026-05-01 14:45 -22.98463 -43.59181 6725 ft 254 kts 64°
2026-05-01 14:45 -22.96923 -43.55681 6411 ft 261 kts 64°
2026-05-01 14:45 -22.96139 -43.53899 6238 ft 261 kts 64°
2026-05-01 14:46 -22.95357 -43.52124 6073 ft 260 kts 64°
2026-05-01 14:46 -22.93786 -43.48557 5619 ft 268 kts 63°
2026-05-01 14:46 -22.93010 -43.46740 5350 ft 264 kts 66°
2026-05-01 14:47 -22.92244 -43.44959 5094 ft 258 kts 64°
2026-05-01 14:47 -22.91566 -43.43174 4793 ft 251 kts 67°
2026-05-01 14:47 -22.90878 -43.41496 4666 ft 236 kts 65°
2026-05-01 14:48 -22.89570 -43.38470 4468 ft 206 kts 65°
2026-05-01 14:48 -22.88988 -43.37110 4380 ft 192 kts 65°
2026-05-01 14:48 -22.88378 -43.34552 4181 ft 171 kts 103°
2026-05-01 14:49 -22.88779 -43.31976 4047 ft 175 kts 97°
2026-05-01 14:49 -22.89145 -43.29351 3876 ft 177 kts 98°
2026-05-01 14:50 -22.89452 -43.27181 3707 ft 172 kts 98°
2026-05-01 14:50 -22.89876 -43.24203 3298 ft 169 kts 98°
2026-05-01 14:51 -22.90058 -43.22920 2843 ft 173 kts 98°
2026-05-01 14:51 -22.90425 -43.20334 2005 ft 167 kts 99°
2026-05-01 14:52 -22.90740 -43.18127 1978 ft 139 kts 99°
2026-05-01 14:52 -22.90885 -43.17103 1965 ft 136 kts 100°
2026-05-01 14:52 -22.91024 -43.15090 1945 ft 129 kts 77°
2026-05-01 14:53 -22.90579 -43.14237 1738 ft 138 kts 47°
2026-05-01 14:53 -22.89804 -43.13613 1597 ft 139 kts 31°
2026-05-01 14:53 -22.88921 -43.13175 1547 ft 142 kts 23°
2026-05-01 14:53 -22.87965 -43.12874 1441 ft 142 kts
2026-05-01 14:54 -22.87028 -43.13162 1174 ft 143 kts 320°
2026-05-01 14:54 -22.86545 -43.14073 939 ft 144 kts 278°
2026-05-01 14:54 -22.86618 -43.15136 806 ft 139 kts 249°
2026-05-01 14:54 -22.87136 -43.15981 662 ft 137 kts 217°
2026-05-01 14:55 -22.87955 -43.16391 554 ft 133 kts 190°
2026-05-01 14:55 -22.88888 -43.16427 379 ft 132 kts 175°
2026-05-01 14:55 -22.89774 -43.16360 196 ft 127 kts 176°
2026-05-01 14:55 -22.90646 -43.16310 29 ft 124 kts 176°
2026-05-01 14:56 -22.91261 -43.16269 19 ft 37 kts 176°
2026-05-01 14:56 -22.91344 -43.16346 19 ft 12 kts 268°
2026-05-01 14:56 -22.91349 -43.16432 21 ft 10 kts 267°
2026-05-01 14:56 -22.91339 -43.16500 21 ft 10 kts 329°
2026-05-01 14:57 -22.91272 -43.16509 21 ft 9 kts 356°
2026-05-01 14:57 -22.91164 -43.16520 23 ft 5 kts 351°
2026-05-01 14:57 -22.91135 -43.16561 23 ft 7 kts 267°
2026-05-01 14:58 -22.91136 -43.16584 21 ft 1 kts 266°
2026-05-01 14:58 -22.91136 -43.16585 21 ft 0 kts 266°